Skip Page Navigation
NASA JPL Caltech
NASA Logo - Jet Propulsion Laboratory + View the NASA Portal
+ Near-Earth Object (NEO) Program
Search JPL
JPL Home Earth Solar System Stars & Galaxies Technology
JPL Solar System Dynamics
BODIES ORBITS EPHEMERIDES TOOLS PHYSICAL DATA DISCOVERY FAQ SITE MAP
JPL Small-Body Database Browser
Search: [ help ]  
330233 (2006 KV86)
Classification: Apollo [NEO, PHA]          SPK-ID: 2330233
Ephemeris | Orbit Diagram | Orbital Elements | Physical Parameters | Discovery Circumstances | Close-Approach Data ]

[ hide orbit diagram ]
Orbit Diagram
Note: Make sure you have Java enabled on your browser to see the applet. This applet is provided as a 3D orbit visualization tool. The applet was implemented using 2-body methods, and hence should not be used for determining accurate long-term trajectories (over several years or decades) or planetary encounter circumstances. For accurate long-term ephemerides, please instead use our Horizons system.
Orbit Viewer

Additional Notes: the orbits shown in the applet are color coded. The planets are white lines, and the asteroid/comet is a blue line. The bright white line indicates the portion of the orbit that is above the ecliptic plane, and the darker portion is below the ecliptic plane. Likewise for the asteroid/comet orbit, the light blue indicates the portion above the ecliptic plane, and the dark blue the portion below the ecliptic plane.

Orbit Viewer applet originally written and kindly provided by Osamu Ajiki (AstroArts), and further modified by Ron Baalke (JPL).


Orbital Elements at Epoch 2456400.5 (2013-Apr-18.0) TDB
Reference: JPL 32 (heliocentric ecliptic J2000)
 Element Value Uncertainty (1-sigma)   Units 
e .3742450317658009 1.4291e-07  
a 1.543200686957743 4.7226e-08 AU
q .9656654968462369 2.3099e-07 AU
i 37.07032135227689 2.8847e-05 deg
node 220.085414946729 1.9674e-05 deg
peri 153.7962044997175 4.4254e-05 deg
M 91.37440194610797 2.1858e-05 deg
tp 2456222.772723609841
(2012-Oct-22.27272361)
4.7948e-05 JED
period 700.216013869982
1.92
3.2143e-05
8.8e-08
d
yr
n .5141270591775494 2.36e-08 deg/d
Q 2.12073587706925 6.49e-08 AU
  Orbit Determination Parameters
   # obs. used (total)      120  
   data-arc span      2385 days (6.53 yr)  
   first obs. used      2006-05-26  
   last obs. used      2012-12-05  
   planetary ephem.      DE405  
   SB-pert. ephem.      SB405-CPV-2  
   condition code      0  
   fit RMS      .6736  
   data source      ORB  
   producer      Otto Matic  
   solution date      2013-Apr-29 15:41:45  

Additional Information
 Earth MOID = .00111624 AU 
 T_jup = 4.178 
[ show covariance matrix ]

Ephemeris | Orbit Diagram | Orbital Elements | Physical Parameters | Discovery Circumstances | Close-Approach Data ]

Physical Parameter Table
Parameter Symbol Value Units Sigma Reference Notes
absolute magnitude H 18.826 mag .49694 32 autocmod 2.5c

330233 (2006 KV86)          Discovered 2006-May-26 by Mt. Lemmon Survey at Mount Lemmon (G96)
Reference: 20120604/Numbers.arcLast Updated: 2012-06-06

[ show close-approach data ]
Ephemeris | Orbit Diagram | Orbital Elements | Physical Parameters | Discovery Circumstances | Close-Approach Data ]
ABOUT SSD CREDITS/AWARDS PRIVACY/COPYRIGHT GLOSSARY LINKS
FirstGov 2013-May-21 21:21 UT
(server date/time)  
NASA Home Page
Site Manager:   Donald K. Yeomans
Webmaster  Alan B. Chamberlin